This demonstration page uses our WeatherBlox Daily Observations layout. Learn more.

Left ArrowRight Arrow

Hourly Observations for July 15, 2016

Temp ( °F °C ) Dew Point ( °F °C ) Humidity (%) Winds ( mph kmh ) Pressure ( in mb ) Visibility ( mi km ) Precip ( " mm )
12:15 am 00:15 Clear 66 19 62 16.7 87 87 N N/A 30.03 1017 10 16 N/A
12:35 am 00:35 Clear 65 18.1 60 15.4 84 84 N N/A 30.03 1017 10 16 N/A
12:55 am 00:55 Clear 64 18 61 16 88 88 N N/A 30.03 1017 10 16 N/A
1:15 am 01:15 Clear 63 17.3 60 15.7 90 90 N N/A 30.06 1018 10 16 N/A
1:35 am 01:35 Clear 62 16.7 60 15.3 92 92 N N/A 30.03 1017 7 11 N/A
1:55 am 01:55 Clear 62 16.7 60 15.5 93 93 N N/A 30.03 1017 7 11 N/A
2:15 am 02:15 Clear 62 16.5 59 15.2 92 92 N N/A 30.06 1018 10 16 N/A
2:35 am 02:35 Clear 63 17 60 15.4 90 90 N N/A 30.03 1017 10 16 N/A
2:55 am 02:55 Clear 61 16.1 58 14.7 91 91 N N/A 30.03 1017 10 16 N/A
3:15 am 03:15 Clear 61 16 58 14.7 92 92 N N/A 30.03 1017 10 16 N/A
3:35 am 03:35 Clear 62 16.4 58 14.7 90 90 N N/A 30.03 1017 10 16 N/A
3:55 am 03:55 Clear 62 16.9 59 15.1 89 89 ESE 5 7 30.03 1017 10 16 N/A
4:15 am 04:15 Clear 63 17.2 60 15.5 90 90 E 6 9 30.00 1016 10 16 N/A
4:35 am 04:35 Clear 63 17.1 60 15.5 90 90 ENE 8 13 30.00 1016 10 16 N/A
4:55 am 04:55 Partly Cloudy 63 17.4 60 15.6 89 89 ENE 9 15 30.03 1017 10 16 N/A
5:15 am 05:15 Cloudy 64 17.8 61 16 89 89 NE 10 17 30.03 1017 10 16 N/A
5:35 am 05:35 Mostly Cloudy with Nearby Thunderstorms 63 17.2 58 14.6 85 85 ENE 14 22 30.06 1018 10 16 N/A
5:55 am 05:55 Partly Cloudy with Nearby Thunderstorms 61 16.3 57 14 86 86 ENE 14 22 30.06 1018 10 16 N/A
6:15 am 06:15 Mostly Cloudy with Thunderstorms 62 16.5 57 13.8 84 84 E 9 15 30.09 1019 10 16 N/A
6:35 am 06:35 Cloudy 61 16.2 57 13.9 86 86 ESE 15 24 30.09 1019 5 8 0.04 1.02
6:55 am 06:55 Mostly Cloudy with Drizzle 61 16 57 14.1 89 89 SE 13 20 30.06 1018 10 16 0.04 1.02
7:15 am 07:15 Mostly Cloudy 61 16 58 14.2 89 89 E 10 17 30.06 1018 10 16 N/A
7:35 am 07:35 Cloudy with Light Rain 61 16 57 14 88 88 SE 17 28 30.06 1018 10 16 N/A
7:55 am 07:55 Partly Cloudy 60 15.8 57 14 89 89 ESE 15 24 30.03 1017 10 16 N/A
8:15 am 08:15 Partly Cloudy 61 16 57 14.1 89 89 NNE 14 22 30.12 1020 10 16 N/A
8:35 am 08:35 Cloudy 61 16.2 56 13.1 82 82 NE 17 28 30.15 1021 10 16 N/A
8:55 am 08:55 Cloudy 61 15.9 55 13 83 83 NNE 21 33 30.18 1022 10 16 N/A
9:15 am 09:15 Cloudy with Strong Thunderstorms 59 15 56 13.1 89 89 NNE 14 22 30.24 1024 2 3 0.13 3.30
9:35 am 09:35 Cloudy with Rain 59 15 56 13.3 90 90 ENE 20 31 30.15 1021 5 8 0.21 5.33
9:55 am 09:55 Mostly Cloudy 59 15 56 13.3 90 90 E 21 33 30.15 1021 10 16 0.22 5.59
10:15 am 10:15 Mostly Cloudy 59 15.2 55 13 87 87 E 18 30 30.15 1021 10 16 N/A
10:35 am 10:35 Cloudy with Nearby Thunderstorms 59 15 56 13.3 90 90 ESE 16 26 30.15 1021 4 6 0.06 1.52
10:55 am 10:55 Cloudy with Thunderstorms 58 14.6 56 13.1 91 91 ENE 17 28 30.15 1021 4 6 0.15 3.81
11:15 am 11:15 Mostly Cloudy 59 15 56 13.2 89 89 ESE 15 24 30.15 1021 10 16 N/A
11:35 am 11:35 Mostly Cloudy 60 15.7 57 13.9 89 89 E 13 20 30.15 1021 10 16 N/A
11:55 am 11:55 Cloudy 60 15.6 56 13.6 88 88 N 5 7 30.21 1023 10 16 0.01 0.25
12:15 pm 12:15 Cloudy 60 15.5 56 13.6 89 89 E 6 9 30.24 1024 4 6 0.17 4.32
12:35 pm 12:35 Cloudy with Nearby Thunderstorms 59 15.2 57 14 93 93 ESE 5 7 30.21 1023 7 11 0.22 5.59
12:55 pm 12:55 Cloudy with Thunderstorms 59 15.2 57 14 93 93 SSE 3 6 30.21 1023 10 16 0.24 6.10
1:15 pm 13:15 Cloudy 60 15.6 58 14.3 92 92 ESE 9 15 30.15 1021 10 16 0.01 0.25
1:35 pm 13:35 Cloudy with Light Rain 60 15.8 58 14.2 90 90 SE 13 20 30.12 1020 10 16 0.02 0.51
1:55 pm 13:55 Cloudy 60 15.5 57 14 91 91 SSE 13 20 30.12 1020 7 11 0.06 1.52
2:15 pm 14:15 Mostly Cloudy 61 16.1 59 15 93 93 SSE 12 19 30.09 1019 10 16 0.01 0.25
2:35 pm 14:35 Cloudy 62 16.5 58 14.7 89 89 SSE 13 20 30.09 1019 10 16 0.01 0.25
2:55 pm 14:55 Cloudy 62 16.5 58 14.6 89 89 S 5 7 30.09 1019 10 16 0.01 0.25
3:15 pm 15:15 Mostly Cloudy with Thunderstorms 63 17.4 60 15.6 89 89 SSW 12 19 30.03 1017 10 16 N/A
3:35 pm 15:35 undefined N/A N/A N/A S 15 24 N/A N/A N/A
3:55 pm 15:55 Mostly Cloudy 69 20.3 60 15.3 73 73 S 16 26 30.00 1016 10 16 N/A
4:15 pm 16:15 Mostly Cloudy 71 21.4 60 15.7 70 70 S 13 20 29.94 1014 10 16 N/A
4:35 pm 16:35 Mostly Cloudy 71 21.5 60 15.4 68 68 S 14 22 29.94 1014 10 16 N/A
4:55 pm 16:55 Cloudy 73 22.9 60 15.7 64 64 SSW 12 19 29.94 1014 10 16 N/A
5:15 pm 17:15 Cloudy 74 23.3 60 15.8 63 63 S 3 6 29.97 1015 10 16 N/A
5:35 pm 17:35 Cloudy 74 23.3 59 15 60 60 SSE 5 7 29.97 1015 10 16 N/A
5:55 pm 17:55 Partly Cloudy 75 23.9 59 14.8 57 57 N N/A 29.91 1013 10 16 N/A
6:15 pm 18:15 Sunny 75 24.1 58 14.7 56 56 N N/A 29.91 1013 10 16 N/A
6:35 pm 18:35 Sunny 75 24 58 14.6 56 56 N N/A 29.91 1013 10 16 N/A
6:55 pm 18:55 Sunny 75 24 58 14.4 55 55 N N/A 29.91 1013 10 16 N/A
7:15 pm 19:15 Sunny 75 23.9 60 15.7 60 60 ENE 5 7 29.91 1013 10 16 N/A
7:35 pm 19:35 Sunny 74 23.5 60 15.5 61 61 ENE 5 7 29.94 1014 10 16 N/A
7:55 pm 19:55 Sunny 74 23.2 60 15.3 61 61 ENE 5 7 29.94 1014 10 16 N/A
8:15 pm 20:15 Sunny 73 22.8 62 16.4 67 67 E 7 11 29.97 1015 10 16 N/A
8:35 pm 20:35 Sunny 72 22.2 62 16.5 70 70 ESE 5 7 29.97 1015 10 16 N/A
8:55 pm 20:55 Sunny 70 21.1 61 16 73 73 ESE 5 7 29.97 1015 10 16 N/A
9:15 pm 21:15 Clear 68 19.8 60 15.7 77 77 E 6 9 30.00 1016 10 16 N/A
9:35 pm 21:35 Clear 67 19.2 61 16.3 83 83 E 9 15 30.00 1016 10 16 N/A
9:55 pm 21:55 Clear 67 19.4 62 16.5 83 83 ESE 8 13 30.00 1016 10 16 N/A
10:15 pm 22:15 Clear 66 18.7 61 16.3 86 86 ESE 7 11 30.03 1017 10 16 N/A
10:35 pm 22:35 Clear 65 18.3 61 16 87 87 ESE 7 11 30.03 1017 10 16 N/A
10:55 pm 22:55 Clear 64 18 61 16 88 88 E 7 11 30.03 1017 10 16 N/A
11:15 pm 23:15 Clear 64 17.6 61 15.9 90 90 E 7 11 30.00 1016 10 16 N/A
11:35 pm 23:35 Clear 64 17.6 60 15.6 88 88 ESE 7 11 30.00 1016 10 16 N/A
11:55 pm 23:55 Clear 63 17.3 60 15.5 89 89 ESE 6 9 30.06 1018 10 16 N/A

Powered by AerisWeather